Home   Weather   Mersin   Past weeks

Flag for Turkey Past Weather in Mersin, Turkey — Yesterday and Last 2 Weeks

Now
46 °F

Passing clouds.


Feels Like: 44 °F
Forecast: 48 / 62 °F
Wind: 6 mph from Northeast

Location: Adana / Sakirpasa

Current Time: Jan 18, 2017 at 2:28:26 am

Latest Report: Jan 18, 2017 at 1:50 am


Visibility: N/A

Pressure: 30.09 "Hg

Humidity: 66%

Dew Point: 36 °F

Location of MersinLocation

Past Weather in Mersin — Graph

°F

Mersin Temperature Yesterday

Maximum temperature yesterday: 63 °F (at 2:50 pm)
Minimum temperature yesterday: 43 °F (at 3:50 am)
Average temperature yesterday: 51 °F

High & Low Weather Summary for the Past Weeks

 TemperatureHumidityPressure
High63 °F (Jan 17, 2:50 pm)100% (Jan 4, 2:20 am)30.33 "Hg (Jan 4, 2:20 am)
Low34 °F (Jan 14, 5:50 am)25% (Jan 13, 3:50 pm)29.62 "Hg (Jan 8, 3:50 pm)
Average48 °F71%30.08 "Hg
* Reported Jan 3 12:20 am — Jan 18 12:50 am, Mersin, Weather by CustomWeather, © 2017

Note: Actual official high and low records may vary slightly from our data, if they occured in-between our weather recording intervals... More about our weather records

Advertising

Mersin Weather History for the Previous 24 Hours

Scroll right to see more
 ConditionsComfort  
Time TempWeatherWind HumidityBarometerVisibility
12:50 am
Wed, Jan 18
45 °FPassing clouds.2 mph71%30.07 "HgN/A
12:20 am46 °FPassing clouds.2 mph66%30.09 "HgN/A
11:50 pm
Tue, Jan 17
46 °FPassing clouds.5 mph66%30.09 "HgN/A
11:20 pm46 °FPassing clouds.2 mph62%30.09 "HgN/A
10:50 pm48 °FPassing clouds.3 mph58%30.09 "HgN/A
10:20 pm50 °FPassing clouds.5 mph62%30.09 "HgN/A
9:50 pm50 °FPassing clouds.2 mph62%30.09 "HgN/A
9:20 pm52 °FPassing clouds.5 mph54%30.09 "HgN/A
8:50 pm54 °FPassing clouds.7 mph51%30.09 "HgN/A
8:20 pm54 °FPassing clouds.10 mph51%30.09 "HgN/A
7:50 pm55 °FPassing clouds.12 mph47%30.09 "HgN/A
7:20 pm52 °FPassing clouds.7 mph58%30.09 "Hg2 mi
6:50 pm54 °FRain. Passing clouds.3 mph54%30.09 "Hg2 mi
6:20 pm54 °FRain. Passing clouds.3 mph51%30.09 "Hg2 mi
5:50 pm55 °FPassing clouds.5 mph47%30.09 "HgN/A
5:20 pm57 °FPartly sunny.6 mph44%30.09 "HgN/A
4:50 pm59 °FPartly sunny.8 mph39%30.09 "HgN/A
4:20 pm61 °FPartly sunny.10 mph36%30.09 "HgN/A
3:50 pm61 °FPartly sunny.9 mph36%30.09 "HgN/A
3:20 pm61 °FPartly sunny.12 mph36%30.09 "HgN/A
2:50 pm63 °FPartly sunny.13 mph34%30.09 "HgN/A
2:20 pm61 °FPartly sunny.13 mph36%30.09 "HgN/A
1:50 pm61 °FPartly sunny.9 mph36%30.09 "HgN/A
1:20 pm59 °FPartly sunny.8 mph39%30.12 "HgN/A
12:50 pm59 °FPartly sunny.8 mph42%30.12 "HgN/A
12:20 pm57 °FPartly sunny.7 mph41%30.15 "HgN/A
11:50 am55 °FPartly sunny.7 mph47%30.15 "HgN/A
11:20 am55 °FPartly sunny.7 mph44%30.18 "HgN/A
10:50 am54 °FPartly sunny.6 mph51%30.18 "HgN/A
10:20 am52 °FPartly sunny.6 mph54%30.18 "HgN/A
9:50 am50 °FPartly sunny.6 mph62%30.18 "HgN/A
9:20 am48 °FHaze.5 mph66%30.18 "Hg3 mi
8:50 am45 °FPassing clouds.2 mph76%30.18 "HgN/A
8:20 am43 °FPassing clouds.2 mph81%30.18 "HgN/A
7:50 am43 °FPassing clouds.5 mph76%30.15 "HgN/A
7:20 am43 °FPassing clouds.6 mph81%30.15 "HgN/A
6:50 am43 °FPassing clouds.3 mph76%30.15 "HgN/A
6:20 am43 °FPassing clouds.2 mph76%30.15 "HgN/A
5:50 am45 °FPassing clouds.3 mph76%30.15 "HgN/A
5:20 am43 °FPassing clouds.3 mph81%30.15 "HgN/A
4:50 am43 °FPassing clouds.2 mph76%30.15 "HgN/A
4:20 am43 °FPassing clouds.1 mph81%30.18 "HgN/A
3:50 am43 °FPassing clouds.2 mph76%30.18 "HgN/A
3:20 am45 °FPassing clouds.2 mph76%30.18 "HgN/A
2:50 am45 °FPassing clouds.6 mph76%30.18 "HgN/A
2:20 am45 °FPassing clouds.7 mph76%30.18 "HgN/A
Weather by CustomWeather, © 2017

See weather overviewHow to use our weather pages